Regional Weather Roundup
Issued by NWS

Home | Current Version | Previous Version | Text Only | Print | Product List | Glossary Off
Versions: 1 2 3 4 5 6 7 8 9 10 11 12 13 14 15 16 17 18 19 20 21 22 23 24 25 26 27 28 29 30 31 32 33 34 35 36 37 38 39 40 41 42 43 44 45 46 47 48 49 50

000
ASUS45 KCYS 200210
RWRWY

WYOMING REGIONAL WEATHER ROUNDUP
NATIONAL WEATHER SERVICE CHEYENNE WY
800 PM MDT SUN OCT 19 2014

NOTE:  "FAIR" INDICATES FEW OR NO CLOUDS BELOW 12,000 FEET
WITH NO SIGNIFICANT WEATHER AND/OR OBSTRUCTIONS TO VISIBILITY.

WYZ001-200300-
YELLOWSTONE NATIONAL PARK

CITY           SKY/WX    TMP DP  RH WIND       PRES   REMARKS
LK YELLOWSTONE   N/A     34  23  64 NW6       30.23S WCI  29
W YELLOWSTONE  NOT AVBL

$$
WYZ002>013-054>058-071-098>099-200300-
NORTHERN WYOMING

CITY           SKY/WX    TMP DP  RH WIND       PRES   REMARKS
JACKSON        CLEAR     45  27  49 MISG      30.14R
CODY           CLEAR    N/A N/A N/A CALM      30.05S
GREYBULL       CLEAR     58  31  35 E7        29.99S
WORLAND        CLEAR     56  30  37 SE10      30.00S
SHERIDAN       CLEAR     48  34  58 S6        30.03S
BUFFALO        CLEAR     54  33  45 W8        30.10R
GILLETTE       CLEAR     47  36  65 CALM      30.09R
HULETT         FAIR      52  37  58 E7        30.10
NEWCASTLE      FAIR      52  34  50 NE6       30.10

$$
WYZ014>020-022>026-101>103-200300-
CENTRAL WYOMING

CITY           SKY/WX    TMP DP  RH WIND       PRES   REMARKS
BIG PINEY      CLEAR     53  22  29 W3        30.19R
PINEDALE       CLEAR     45  23  42 CALM      30.19S
DUBOIS         FAIR      46  18  31 CALM      30.17S
LANDER         CLEAR     53  34  48 SW9       30.07S
RIVERTON       CLEAR     53  29  39 N6        30.08S
CASPER         CLEAR     42  29  59 CALM      30.10R
DOUGLAS        CLEAR     51  31  46 SE5       30.12R

$$
WYZ021-027>030-104>119-200300-
SOUTHERN WYOMING

CITY           SKY/WX    TMP DP  RH WIND       PRES   REMARKS
EVANSTON       CLEAR     55  28  35 E6        30.17R
KEMMERER       CLEAR     54  27  35 CALM      30.20R
FORT BRIDGER   FAIR      56  26  31 SE6       30.20S
ROCK SPRINGS   CLEAR     59  26  28 E5        30.16R
DIXON          FAIR      51  31  46 E5        30.19R
RAWLINS        CLEAR     47  25  42 E3        30.18R
SARATOGA       FAIR      46  28  49 E3        30.20S
LARAMIE        CLEAR     46  30  53 SE9       30.22R
CHEYENNE       CLEAR     55  34  45 CALM      30.18R
TORRINGTON     CLEAR     51  33  50 E7        30.08R
PINE BLUFFS    FAIR      55  34  44 CALM      30.15R

$$


USA.gov is the U.S. government's official web portal to all federal, state and local government web resources and services.